Simultaneous Nadir Overpasses (SNOs) Predictions

Prediction of SNOs between AQUA and NOAA-19 Satellite Orbit:

Table of predicted SNOs for the next 14.0 days since TLE Epoch: 10/15/2022
Index Date (AQUA) Time (AQUA) Lat,Lon (AQUA) SZA (AQUA ) Date (NOAA-19) Time (NOAA-19) Lat,Lon (NOAA-19) SZA (NOAA-19 ) Distance(km) Time Diff (sec)
1 10/15/2022 22:08:47 77.17,-166.21 86.08 10/15/2022 22:08:08 77.18,-166.23 86.10 1.83 39
2 10/15/2022 22:58:13 -77.21, 1.27 93.87 10/15/2022 22:59:03 -77.20, 1.13 93.88 3.60 50
3 10/18/2022 03:41:46 -77.16, -69.41 93.13 10/18/2022 03:40:53 -77.18, -69.37 93.10 2.44 53
4 10/18/2022 04:31:14 77.22, 97.97 86.96 10/18/2022 04:31:57 77.19, 97.94 86.93 3.44 43
5 10/20/2022 09:14:46 77.16, 27.35 87.68 10/20/2022 09:13:47 77.17, 27.44 87.69 2.42 59
6 10/20/2022 10:04:12 -77.20,-165.15 92.27 10/20/2022 10:04:42 -77.18,-165.24 92.29 3.07 30
7 10/22/2022 14:47:43 -77.16, 124.12 91.54 10/22/2022 14:46:31 -77.15, 124.22 91.54 3.03 72
8 10/22/2022 15:37:10 77.18, -68.33 88.50 10/22/2022 15:37:34 77.21, -68.26 88.52 3.07 24
9 10/24/2022 20:20:40 77.08,-138.82 89.16 10/24/2022 20:19:28 77.00,-139.58 89.12 21.10 72
10 10/24/2022 21:10:07 -77.17, 28.50 90.74 10/24/2022 21:10:19 -77.18, 28.50 90.73 1.23 12
11 10/27/2022 02:43:05 77.17, 125.26 90.02 10/27/2022 02:43:13 77.15, 125.22 90.01 2.61 8



Historial Predications of SNOs between AQUA and NOAA-19
